User: anonymous   Login
Location: Cluny
(50.9333°N, 112.8167°W)
Time: 16:24:28
(UTC-06:00)
Language:

Cosmos 1743 Rocket - Orbit

View from above orbital plane
View from above orbital plane
View from above satellite
View from above satellite

Ground track
Ground track

The orbit data is extracted from the following two-line orbital elements,

1 16720U 86034B   16147.51044969  .00000112  00000-0  10830-4 0  9994
2 16720  82.5556 241.9746 0018840 299.3449 192.4291 14.83227946621949
Epoch (UTC): 26 May 2016 12:15:02
Eccentricity: 0.0018840
inclination: 82.5556°
perigee height: 606 km
apogee height: 632 km
right ascension of ascending node: 241.9746°
argument of perigee: 299.3449°
revolutions per day: 14.83227946
mean anomaly at epoch: 192.4291°
orbit number at epoch: 62194

The dashed part of the orbit path shows where the satellite is in the earth's shadow,  

DLR